Location: Newark
(41.6500°N, 71.4833°W)
Time: 04:23:15
(UTC+00:00)

A-11 Canister half - Pass Details

Date: 24 January 2020
Orbit: 1517 x 1683 km, 47.2° (Epoch: 19 February)

Event Time Altitude Azimuth Distance (km) Brightness Sun altitude
Rises 02:56:17 0° 201° (SSW) 4,766 - -55.9°
Reaches altitude 10° 02:59:47 10° 192° (SSW) 3,759 - -56.5°
Maximum altitude 03:07:53 33° 133° (SE) 2,363 - -57.7°
Drops below altitude 10° 03:15:50 10° 74° (ENE) 3,690 - -58.9°
Sets 03:19:12 0° 65° (ENE) 4,667 - -59.4°
